Location: Chervonnoye
(48.6000°N, 34.4000°E)
Time: 06:42:36
(UTC+00:00)

Nadezhda 1 Rocket - Pass Details

Date: 26 April 2021
Orbit: 940 x 1006 km, 83.0° (Epoch: 13 May)

Event Time Altitude Azimuth Distance (km) Brightness Sun altitude
Exits shadow 20:28:52 31° 96° (E) 1,679 5.0 -25.6°
Maximum altitude 20:29:29 32° 85° (E) 1,660 5.0 -25.7°
Drops below altitude 10° 20:34:58 10° 26° (NNE) 2,769 6.9 -25.9°
Sets 20:37:44 0° 17° (NNE) 3,713 7.9 -26.1°
